Location: Kapla
(46.2483°N, 15.0094°E)
Time: 07:26:28
(UTC+00:00)

Cosmos 1703 Rocket - Pass Details

Date: 03 March 2021
Orbit: 604 x 634 km, 82.5° (Epoch: 18 April)

Event Time Altitude Azimuth Distance (km) Brightness Sun altitude
Rises 18:47:53 0° 346° (NNW) 2,912 7.4 -21.2°
Reaches altitude 10° 18:50:10 10° 341° (NNW) 1,995 6.6 -21.6°
Maximum altitude 18:54:27 51° 266° (W) 775 4.3 -22.3°
Drops below altitude 10° 18:58:40 10° 191° (S) 1,962 6.1 -23.0°
Enters shadow 18:59:26 - 189° (S) 2,269 6.4 -23.1°
